Location: Chenereilles
(45.4866°N, 4.0790°E)
Time: 16:06:01
(UTC+00:00)

Cosmos 2297 Rocket - Pass Details

Date: 12 November 2019
Orbit: 839 x 843 km, 71.0° (Epoch: 12 December)

Event Time Altitude Azimuth Distance (km) Brightness Sun altitude
Rises 19:24:01 0° 321° (NW) 3,406 6.0 -32.8°
Reaches altitude 10° 19:27:02 10° 306° (NW) 2,467 5.3 -33.3°
Maximum altitude 19:31:05 21° 260° (W) 1,829 4.5 -34.0°
Drops below altitude 10° 19:35:07 10° 214° (SSW) 2,456 4.8 -34.7°
Sets 19:38:08 0° 198° (SSW) 3,386 5.4 -35.2°
